Dewpoint
77 76 76 76 76 75 73 70 54 56 55 53 54 56 56 62 63 62 61 64 62 64 66 67 64 65 64 62 60 59 60 63 62 52 50 62 73 73 74 74 75 75 75 76 76 76 76 76 76 76 76 77 77 77 77 77 77 77 76 76 77 77 77 77 77 77 77 77 78 78 78 78 79 79 79 79 79 79 79 79 79 79 79 79 78 78 78 78 78 77 77 77 78 78 78 78 78
76 75 74 74 74 72 66 67 56 55 54 54 55 58 59 62 61 60 62 62 63 64 66 66 65 67 60 58 57 61 59 63 64 65 69 71 73 74 74 74 74 75 75 76 76 76 76 77 77 77 76 77 77 77 77 77 77 77 77 77 77 77 77 77 77 77 77 77 78 78 78 78 78 78 78 78 79 79 79 79 79 79 78 78 78 78 78 78 78 78 77 77 78 77 77 77 78
72 73 73 74 73 70 68 65 54 53 51 52 54 58 62 61 60 62 63 64 65 66 66 66 65 63 61 62 56 59 56 66 67 68 69 72 72 73 74 74 75 75 76 76 76 76 76 77 78 78 77 77 77 77 77 77 77 77 77 77 77 77 77 77 77 77 77 77 78 78 78 78 78 78 78 78 78 78 78 78 79 78 78 78 78 78 78 78 77 78 77 77 77 78 78 77 77
72 72 71 72 67 69 61 59 57 54 52 52 54 60 62 62 61 63 65 66 67 66 66 65 63 63 63 55 57 60 61 64 68 68 69 70 71 73 74 74 75 75 76 76 76 76 76 77 77 77 77 77 77 77 77 77 77 77 77 77 77 77 77 77 77 77 77 77 77 78 78 78 78 78 78 78 78 78 78 78 78 78 78 78 78 77 78 77 77 77 77 77 77 77 77 77 77
71 73 73 71 64 59 60 58 56 56 54 55 54 60 60 61 63 64 65 67 68 68 66 62 63 62 62 62 68 60 60 67 67 69 69 71 73 73 74 75 75 75 75 76 76 76 76 78 78 77 77 77 77 77 77 77 77 77 77 77 77 77 77 77 77 77 77 77 77 78 78 78 78 78 78 78 78 78 78 78 78 78 78 78 78 78 78 77 77 77 77 77 77 77 77 77 77
69 70 75 71 63 62 59 55 55 56 58 60 57 60 63 63 63 65 64 67 67 68 68 67 61 63 63 64 65 56 65 64 67 68 70 71 72 73 74 75 74 74 75 76 76 76 76 78 78 78 77 77 77 76 77 77 77 76 76 76 77 77 77 77 77 77 77 78 78 77 77 78 78 78 77 78 78 78 78 78 78 78 77 77 77 77 77 77 77 77 77 77 77 76 76 76 76
70 70 70 67 64 63 55 54 54 56 59 62 59 60 63 64 65 66 64 66 66 67 68 63 61 62 61 63 64 58 61 65 68 69 71 71 73 74 74 74 74 74 75 75 76 76 76 78 77 77 77 77 77 77 76 77 77 77 76 76 76 77 77 77 77 77 77 77 77 77 77 78 78 78 78 78 78 78 78 78 78 78 77 77 77 77 77 77 77 77 76 76 76 76 76 76 76
73 67 67 58 57 59 56 54 55 57 57 62 61 62 63 66 66 65 64 66 62 64 63 66 63 64 63 67 63 64 65 68 68 70 71 72 73 73 73 73 74 74 75 75 75 76 78 78 78 77 77 77 77 77 77 76 77 77 77 77 77 77 77 77 77 78 77 77 77 77 77 77 78 78 78 78 78 78 78 78 78 78 77 77 77 77 77 77 77 76 76 76 76 76 76 76 76
70 68 67 59 56 57 54 54 55 59 60 63 63 68 68 67 67 66 64 65 66 65 66 65 65 63 62 63 63 66 67 68 70 72 71 72 72 72 73 74 74 74 75 75 75 76 76 77 77 77 77 77 77 77 77 77 77 77 77 77 77 77 76 77 77 77 77 77 77 77 77 77 77 78 78 78 78 78 78 78 78 78 78 77 77 77 77 76 76 76 76 76 76 76 76 75 76
68 65 60 56 57 53 53 51 54 57 60 63 63 65 66 66 65 66 64 64 66 67 64 66 65 62 63 61 62 67 68 69 70 71 71 71 71 72 73 73 74 74 74 75 76 76 76 77 77 76 77 77 77 77 76 77 77 77 77 76 76 77 76 76 77 77 77 77 77 77 77 77 77 77 78 78 78 78 78 78 78 78 78 77 77 77 77 76 76 76 76 76 76 75 75 75 76
63 67 65 54 52 50 50 52 55 58 60 64 64 67 66 66 65 64 64 65 66 62 67 68 63 64 66 63 65 68 70 70 70 70 71 71 71 72 73 74 74 74 74 75 76 76 76 76 77 77 77 77 77 76 76 76 76 76 77 76 77 77 77 76 76 77 77 77 76 77 76 76 76 76 77 77 77 78 77 77 78 78 78 77 77 77 77 77 76 76 76 76 76 75 75 75 75
61 61 59 53 50 50 51 54 57 58 60 62 63 67 67 67 68 64 66 62 65 63 63 66 62 68 60 60 64 67 69 69 69 70 70 71 71 72 73 73 74 74 75 76 76 76 77 77 76 77 77 77 77 77 76 76 76 76 76 76 76 76 77 77 76 76 76 77 76 76 76 77 76 76 76 77 77 77 77 77 78 77 77 77 77 77 77 77 77 76 76 76 76 76 76 75 75
62 62 56 51 49 53 55 55 56 60 58 59 61 65 67 67 64 64 65 64 65 65 61 66 63 69 61 63 64 66 67 68 69 70 70 70 71 73 73 73 74 74 75 75 75 76 76 76 76 77 77 77 77 77 77 76 76 76 76 77 76 76 76 76 76 76 77 77 77 77 77 77 76 76 76 77 77 77 77 77 77 77 77 77 77 76 76 76 77 76 76 76 76 76 76 75 75
63 60 56 47 54 54 54 54 56 55 56 60 64 66 68 66 66 66 65 63 64 65 61 64 65 67 63 62 62 63 64 68 69 69 69 69 70 72 72 73 73 74 74 74 75 75 76 76 76 76 77 76 76 77 77 77 77 76 77 76 76 76 76 77 76 76 77 77 77 77 77 77 77 77 77 77 77 77 78 77 77 77 76 76 76 76 76 76 76 76 76 76 76 76 76 75 75
61 59 53 50 47 53 55 54 55 55 55 61 63 65 67 68 67 67 64 63 64 69 66 65 68 64 59 61 58 59 62 67 69 68 68 69 71 72 72 72 72 73 73 74 74 75 75 75 75 76 76 76 76 76 76 76 77 76 76 77 77 76 77 76 76 76 77 77 77 76 76 76 76 76 77 76 77 77 77 77 77 76 76 76 76 76 76 76 76 76 76 76 76 76 76 75 75
58 54 51 46 42 44 45 55 56 56 56 61 63 67 65 66 68 65 65 66 64 71 69 65 66 65 64 65 61 61 60 65 66 67 68 69 71 71 72 72 72 72 73 74 74 74 75 75 75 75 75 75 75 75 76 76 76 76 76 76 77 76 76 76 77 76 76 76 76 76 76 76 76 76 76 76 76 76 76 76 76 76 76 76 76 76 76 76 76 76 76 76 76 76 75 75 74
48 51 45 45 43 45 45 51 55 52 58 62 65 64 63 64 68 68 69 69 63 65 67 68 69 70 69 70 61 60 65 67 68 67 68 69 70 70 71 71 72 72 72 73 73 74 74 74 74 74 75 75 75 75 75 75 75 76 75 76 77 77 77 76 76 76 76 75 75 75 75 75 75 75 75 75 76 75 76 76 76 76 76 76 76 76 76 76 76 76 76 75 75 75 75 74 74
36 45 44 44 45 46 48 50 54 57 59 61 64 64 63 61 65 67 65 67 68 67 67 70 69 71 71 66 64 62 66 66 67 67 68 68 69 70 70 71 71 71 72 72 73 73 74 74 74 74 74 75 75 75 75 75 76 76 75 75 75 76 76 76 75 75 75 74 75 75 74 75 74 74 74 75 75 75 75 75 76 75 75 76 76 76 75 75 75 75 75 75 74 74 75 75 75
39 47 46 41 46 47 52 53 57 59 59 62 63 65 63 62 63 64 63 64 65 65 67 69 66 67 68 65 65 60 64 65 66 67 67 67 68 69 69 70 71 71 71 72 72 73 73 73 74 74 74 74 74 75 75 75 75 75 75 75 75 76 75 75 74 75 74 74 74 74 75 74 74 74 74 75 75 76 75 75 75 76 76 76 75 76 76 76 75 75 75 75 74 75 74 73 73
41 46 45 46 49 51 56 59 59 60 62 62 63 63 63 63 64 63 63 62 65 63 63 64 63 64 65 63 64 60 61 65 66 66 66 67 67 68 69 69 70 71 71 71 72 73 73 73 73 74 74 74 74 74 75 75 75 75 75 75 75 75 75 75 74 74 74 73 74 74 74 74 73 73 75 75 75 75 75 75 75 75 75 75 75 75 75 76 75 75 75 75 75 75 73 73 74
44 46 47 49 52 51 54 62 59 61 63 63 63 64 63 64 64 63 64 61 62 64 65 63 63 64 63 63 62 60 60 62 65 66 66 67 67 68 68 69 69 70 71 71 72 73 73 73 73 73 74 74 74 74 74 74 74 75 75 75 75 75 74 74 74 74 73 73 74 74 74 74 73 73 74 74 74 74 73 73 74 75 74 73 75 73 72 72 73 72 72 75 73 74 73 73 74
41 44 47 49 52 49 54 60 62 62 63 63 63 61 61 64 62 62 61 59 58 62 66 65 65 65 63 62 61 61 60 63 65 66 68 68 67 67 68 68 69 70 71 71 72 72 73 73 73 73 74 74 74 74 74 75 75 74 74 75 75 75 74 74 74 74 74 74 74 74 74 73 73 73 74 74 74 73 73 72 73 73 72 72 75 72 72 71 71 72 72 72 73 73 74 74 74
44 47 48 50 50 49 53 58 62 61 61 60 61 62 63 61 62 62 61 61 62 64 65 65 65 66 66 62 61 60 61 64 65 64 65 66 66 69 69 68 69 69 70 71 71 72 73 73 73 73 74 73 73 74 74 75 74 74 74 75 75 74 74 74 74 74 74 73 73 75 74 73 73 73 73 73 73 73 73 72 72 73 72 72 73 72 72 71 71 72 72 72 72 73 74 73 73
44 45 47 48 49 50 53 58 63 58 58 58 61 63 60 61 59 61 61 63 65 65 64 65 65 65 66 62 61 65 65 66 67 68 66 70 69 68 70 68 69 69 70 70 71 71 72 72 73 73 73 73 73 74 74 74 74 74 74 76 75 76 75 74 74 73 73 73 73 74 75 73 73 73 73 73 73 73 73 72 72 72 72 72 72 72 72 72 72 72 72 72 72 73 73 73 73
42 43 45 47 50 52 54 58 58 61 60 61 64 57 59 61 59 59 61 60 64 64 64 63 64 66 65 63 64 66 66 66 68 68 70 67 69 70 69 72 68 69 69 69 70 70 71 72 73 73 73 73 73 73 73 74 73 74 74 75 74 76 74 74 74 73 73 73 73 74 74 73 72 73 73 73 73 73 73 73 73 73 72 72 72 72 72 72 72 72 72 72 72 73 73 73 72
29 42 44 47 49 53 56 58 60 62 62 65 61 61 61 61 56 58 59 61 64 64 63 63 65 66 64 64 66 65 64 66 67 68 67 67 67 68 69 67 67 68 69 69 70 70 71 72 72 73 73 73 73 73 73 73 73 74 74 74 74 76 74 74 74 73 72 73 73 73 74 73 72 73 72 73 73 73 73 73 72 73 72 73 72 72 72 72 72 72 72 72 73 73 72 72 73
24 37 43 46 53 54 58 55 59 62 62 63 55 55 56 60 55 53 60 61 63 62 62 64 65 64 64 64 65 65 64 66 68 68 68 67 67 66 67 68 68 69 69 69 69 70 71 72 72 72 72 73 72 73 73 73 73 73 74 74 74 74 74 74 74 73 72 72 73 73 73 74 73 73 73 73 73 73 73 72 72 72 72 72 73 72 73 72 72 72 72 72 72 72 72 72 72
25 20 38 48 53 55 59 58 59 61 58 62 54 53 58 58 57 54 57 60 62 61 62 63 64 63 63 64 65 66 65 66 68 67 67 67 65 65 67 67 68 69 70 69 69 70 71 71 71 72 72 73 73 73 73 73 73 73 74 73 73 74 74 73 73 73 72 72 73 72 73 73 74 73 73 73 73 72 73 72 72 72 72 72 73 73 73 73 72 72 72 72 72 72 72 72 72
25 21 30 45 53 56 58 57 60 60 57 62 60 51 48 52 53 56 59 60 61 62 62 63 63 64 62 64 65 66 65 66 66 66 66 66 65 66 66 69 68 68 69 70 70 71 71 72 72 72 72 73 72 72 73 73 73 73 73 73 73 73 73 73 73 73 72 72 72 72 73 73 74 73 73 73 73 72 73 72 72 72 72 72 73 73 72 72 72 72 72 73 72 72 71 71 71
25 23 36 44 47 48 55 58 60 59 55 61 56 42 46 49 56 58 58 59 59 61 62 62 63 62 62 63 64 64 65 66 65 64 66 66 66 67 67 69 71 69 70 72 70 70 71 72 72 72 72 73 72 73 73 73 73 73 73 73 74 73 72 72 73 73 73 72 73 72 73 73 74 73 73 72 73 73 73 73 72 72 72 72 73 73 72 72 72 72 72 72 73 72 71 71 71
27 24 37 40 38 41 53 55 57 57 59 59 53 38 38 48 54 59 59 60 58 59 60 61 63 63 62 63 64 65 66 66 66 66 68 68 68 68 67 70 73 72 73 72 71 71 71 71 72 72 73 72 73 73 73 73 73 73 73 72 73 73 72 72 73 73 73 72 73 72 72 73 73 73 73 72 73 73 73 73 73 72 73 73 73 73 72 72 72 71 72 71 71 72 71 71 71
22 18 21 27 34 39 49 57 56 53 57 60 49 42 40 43 50 58 60 60 58 58 59 60 63 63 62 63 63 64 65 66 66 67 68 69 69 69 68 70 73 73 72 72 72 71 71 71 73 72 73 72 72 73 73 73 72 73 73 74 73 73 73 73 73 73 73 73 73 73 72 72 73 73 72 73 72 73 73 73 73 73 72 73 72 72 73 72 72 71 71 71 70 71 71 70 71
23 18 22 35 41 40 45 50 56 54 58 60 51 38 43 42 49 57 61 60 58 57 58 59 61 61 62 62 62 63 63 64 65 66 68 69 70 69 68 71 72 72 72 72 71 71 70 71 73 71 72 71 72 73 73 73 73 73 73 74 73 73 73 72 72 73 73 73 73 73 72 72 72 72 72 73 72 73 73 72 72 73 73 73 72 72 72 73 72 71 71 72 71 70 70 69 69
24 22 27 42 37 41 39 44 51 56 55 51 56 46 43 43 48 55 60 59 56 56 57 59 61 61 61 61 62 62 63 63 64 66 67 69 69 69 69 73 72 71 72 71 71 70 69 71 71 71 72 71 72 72 73 73 72 73 73 73 74 72 72 72 72 72 73 73 73 73 73 72 73 72 72 73 72 73 73 72 72 73 73 73 72 72 72 72 72 71 71 71 71 70 69 68 68
19 23 23 27 39 41 41 37 45 51 56 51 52 50 47 46 48 55 58 58 56 56 57 58 60 60 61 61 62 62 62 63 63 66 67 68 69 69 69 72 71 71 71 70 70 70 69 70 71 72 71 71 72 72 73 72 72 72 73 72 72 72 72 72 72 72 73 73 73 73 74 73 75 73 72 73 72 73 73 72 72 72 73 72 72 72 72 72 71 71 70 70 71 70 69 68 67
20 18 28 30 31 37 38 41 46 45 46 47 48 48 46 44 46 54 57 58 56 56 57 58 58 60 61 61 62 62 62 62 64 66 66 67 68 70 69 71 71 70 71 70 71 70 69 69 70 71 71 71 72 72 72 72 72 72 71 72 71 72 71 72 72 72 72 72 73 73 74 74 75 74 74 74 72 73 73 73 72 73 73 72 72 71 71 71 71 70 70 69 69 70 71 68 67
20 18 18 25 22 29 37 45 48 48 44 39 41 45 37 39 44 52 55 54 54 55 56 57 56 59 60 60 61 62 62 62 65 66 67 68 69 70 70 71 70 70 70 70 71 70 69 70 70 70 71 72 72 72 72 71 71 71 71 70 70 71 71 72 72 72 72 72 73 73 73 74 74 74 74 74 72 73 73 72 72 72 73 73 72 71 71 71 70 70 70 71 69 68 69 69 68
17 18 18 23 21 23 33 37 46 51 41 33 38 34 34 41 46 49 52 52 49 53 55 56 56 57 59 58 59 61 62 66 67 67 68 68 69 71 70 70 70 69 70 69 70 71 69 70 70 70 72 72 72 72 72 72 71 70 70 70 70 70 71 72 71 72 72 72 73 73 73 74 74 73 75 74 74 74 73 72 72 72 72 73 72 72 71 73 71 70 69 68 69 68 69 70 69
16 15 24 22 22 24 35 45 49 51 44 32 41 26 34 39 44 48 50 51 49 53 55 55 56 55 57 58 57 59 62 66 66 66 68 68 69 71 70 70 69 68 69 69 70 71 70 70 71 71 72 72 72 73 73 72 72 72 71 70 70 70 71 72 71 72 72 72 72 73 73 74 74 73 74 74 74 74 74 72 71 72 72 73 73 71 72 71 70 69 69 68 68 70 71 72 69
14 10 10 11 26 15 16 38 46 48 36 31 35 28 37 46 52 52 54 54 53 54 57 56 56 55 56 57 57 58 60 66 66 66 67 68 69 70 70 69 69 69 69 69 70 71 70 71 71 72 72 73 73 73 73 72 72 72 72 71 70 70 70 72 72 72 72 72 72 73 73 74 73 72 73 74 74 74 74 73 72 73 72 73 72 71 71 71 70 70 70 69 67 65 67 68 72
11 15 10 8 6 7 11 32 41 47 47 47 39 41 35 42 48 50 51 54 56 57 56 55 54 56 57 59 58 59 60 64 65 66 67 68 69 69 69 69 69 68 69 69 69 71 70 70 72 72 72 73 73 74 73 72 73 72 72 72 72 71 72 71 71 71 71 72 72 72 73 73 73 72 73 74 74 73 73 74 73 73 73 72 72 71 71 71 70 71 70 70 68 66 66 69 70
5 7 10 7 7 5 5 13 34 33 30 41 37 27 30 38 41 47 50 48 50 52 51 52 52 55 57 57 57 60 62 64 64 65 67 68 69 69 70 69 69 69 69 69 69 70 71 71 72 73 73 73 74 74 73 73 73 72 71 71 68 68 69 69 70 70 71 71 72 72 73 73 72 72 73 74 74 74 73 74 73 72 72 73 73 71 71 71 71 71 70 70 71 69 67 67 66
6 4 7 6 6 4 11 14 19 21 16 31 41 24 23 35 38 43 46 46 46 50 50 52 53 55 56 57 58 60 61 62 63 64 66 67 69 70 70 69 69 69 69 69 70 70 71 72 72 73 73 73 74 74 73 73 72 72 71 70 68 68 68 69 70 71 71 71 72 72 73 73 72 72 72 74 74 74 74 74 73 72 72 72 73 72 72 71 70 71 72 71 71 73 70 67 67
2 3 3 8 10 12 11 10 16 22 38 39 37 34 29 27 35 45 50 49 51 49 50 52 53 55 56 58 59 61 62 62 62 63 64 67 69 69 69 70 69 69 70 70 70 71 71 72 73 73 73 74 74 73 73 73 72 72 71 70 69 68 68 68 69 71 71 72 71 72 72 72 72 72 72 73 73 74 74 74 73 72 71 71 73 72 72 72 71 72 73 72 72 72 70 68 69
3 4 6 7 8 11 13 7 13 17 16 15 33 39 27 36 36 47 49 47 48 48 48 49 54 57 56 58 59 61 62 63 62 63 63 66 68 69 69 70 70 70 70 70 70 70 71 72 73 74 74 74 73 72 72 73 73 72 71 69 70 69 68 69 70 71 71 72 70 71 72 72 72 72 73 73 73 73 74 73 73 72 71 70 74 73 72 72 70 70 72 72 72 71 71 71 71
-0 6 9 12 11 14 13 11 12 25 16 19 23 27 25 27 42 37 41 47 46 47 48 50 54 58 56 57 58 59 62 63 63 63 63 65 68 69 70 71 71 70 69 70 69 69 70 71 72 72 72 73 72 72 73 72 73 73 70 70 69 69 70 69 69 69 70 71 69 70 71 72 72 72 72 72 73 73 73 73 73 72 71 70 74 72 71 71 71 70 71 72 72 71 72 73 73
2 13 10 6 9 20 29 36 32 29 18 25 26 22 30 28 38 37 36 38 43 47 51 53 55 51 55 56 56 57 60 63 64 64 64 66 69 70 71 70 70 70 70 70 69 70 70 70 71 71 72 73 72 72 71 71 71 71 71 70 69 68 69 69 69 69 69 70 69 68 70 71 71 71 72 72 72 72 73 73 72 71 71 73 74 72 72 70 71 71 71 72 73 72 72 73 74
10 10 13 9 13 30 37 34 35 17 20 32 28 24 30 26 30 39 43 45 44 47 48 49 48 53 55 55 58 60 61 65 66 65 65 67 68 69 70 69 70 70 71 70 69 70 70 70 71 71 72 72 71 70 72 71 71 71 71 71 71 70 70 69 69 69 69 69 69 68 69 71 71 71 71 72 72 72 72 72 72 71 71 71 73 71 72 71 71 71 72 72 72 72 72 73 72
7 14 18 11 16 17 13 28 14 12 18 27 25 33 32 29 34 34 37 39 44 49 48 48 52 53 53 56 61 62 63 66 66 66 66 67 68 68 69 69 69 70 70 70 69 69 70 70 71 72 72 71 70 70 70 71 71 71 71 70 71 72 72 70 69 69 69 69 68 68 69 70 70 70 70 71 71 71 71 71 71 71 70 71 73 71 71 72 71 71 72 71 71 72 72 72 71
6 10 18 12 10 13 12 24 25 23 25 31 30 41 31 32 37 40 37 40 46 49 50 53 53 52 53 54 60 63 64 65 65 66 66 66 67 67 68 68 69 69 70 70 70 70 70 71 72 72 71 70 70 71 71 71 71 71 71 71 70 71 73 71 69 69 69 69 69 68 69 69 70 69 70 70 70 71 70 71 71 71 70 71 73 71 71 71 71 71 71 71 71 71 73 72 72
9 8 10 16 20 16 14 20 11 13 18 28 40 25 28 26 27 45 38 45 49 50 51 53 53 54 56 56 58 62 63 64 65 65 65 65 66 67 67 68 68 69 69 70 70 70 71 73 73 71 70 71 71 72 72 71 71 71 71 71 71 72 73 73 71 70 70 69 69 68 68 69 69 69 70 70 70 70 70 70 70 70 70 71 72 72 71 72 72 72 72 71 71 72 73 73 72
6 6 9 7 7 23 8 23 16 22 24 26 29 28 33 27 37 46 48 49 51 53 54 56 56 58 57 56 60 62 63 63 64 65 65 65 66 66 67 67 68 69 69 69 70 71 72 72 71 71 70 71 72 72 72 72 71 71 71 71 71 72 74 72 73 74 72 70 70 69 69 70 69 69 70 70 70 70 70 70 71 70 70 71 72 71 71 72 72 72 72 71 70 72 73 73 73
10 8 9 8 10 17 27 32 33 26 27 24 38 33 33 38 36 40 46 47 50 52 53 54 55 56 56 55 56 60 63 64 64 64 64 65 66 66 67 67 68 69 68 69 70 71 71 71 71 71 71 71 72 72 72 72 71 71 71 71 71 72 73 73 72 73 73 72 72 71 71 70 71 70 71 71 70 70 70 70 70 70 70 71 72 72 71 72 73 73 72 72 70 71 72 72 72
6 8 8 15 18 20 18 12 27 24 19 23 32 29 27 30 28 40 42 46 48 50 52 54 56 55 54 56 56 58 62 64 64 64 64 65 66 66 67 67 68 69 68 68 70 71 70 71 71 71 71 71 72 72 72 72 72 71 71 71 71 71 72 73 73 73 73 72 72 71 71 71 71 71 71 71 70 70 70 72 70 70 70 70 71 72 71 72 73 72 72 72 71 72 72 72 72
4 3 13 6 14 6 19 19 16 12 21 24 29 34 39 35 32 40 40 44 46 49 52 52 52 53 55 57 57 59 63 65 65 65 65 65 65 65 66 66 68 69 69 68 70 71 70 70 70 71 71 71 71 72 72 72 71 71 72 71 71 71 71 73 73 74 73 72 72 71 71 71 72 71 72 71 70 69 69 70 70 70 70 70 70 71 72 71 72 71 71 72 72 72 71 71 71
15 11 6 15 9 16 18 17 27 16 20 24 27 33 30 44 38 35 37 40 44 47 49 48 50 53 56 56 57 60 63 64 65 65 65 65 64 64 65 66 67 68 68 68 69 70 70 70 70 70 70 70 70 70 71 71 71 71 71 72 71 71 72 72 73 74 73 72 72 71 71 71 71 72 70 70 69 68 68 68 69 69 69 69 70 70 71 71 71 71 71 71 71 71 71 71 70
17 12 8 9 17 17 13 23 19 20 25 25 27 25 32 38 43 39 38 41 46 48 49 51 52 54 55 55 57 59 61 63 64 65 65 64 64 64 65 66 67 67 69 69 68 69 69 69 70 71 69 69 69 70 71 71 71 71 71 71 71 71 72 72 73 74 74 73 72 72 71 71 72 71 70 69 69 68 68 67 67 69 69 68 69 69 70 70 71 71 70 70 70 71 71 71 71
18 14 20 17 15 16 17 20 22 27 31 29 27 27 35 40 48 44 41 43 45 50 51 52 53 54 56 56 57 58 59 60 61 62 64 64 65 65 65 67 67 67 68 68 68 68 69 68 69 69 69 69 69 70 70 71 71 71 71 71 71 72 73 73 73 73 74 74 73 73 72 72 71 71 71 70 69 68 68 68 67 67 68 68 68 69 69 70 70 70 70 70 69 70 70 70 71